Погода в Мары

Туркменистан     37°35′28″N   61°51′02″E
В апреле 2022 года жителям России запретили посещать сайт meteo.paraplan.net по решению Генеральной прокуратуры. Аудитория сайта уменьшилась в 10 раз. Владельцы сайта не видят смысла в поддержке погодного сервера в таких условиях. Сайт будет закрыт в октябре.
темп.,
°C
ветер,
м/с
пор.,
м/с
влажн.,
%
обл.,
%
осадки,
мм/ч
давл.,
гПа
погр.,
м
6 октября, чт
чт623:00+15св44150 0.0 102335
02:00+13св44200 0.0 102217
05:00+12ссв44250 0.0 102226
08:00+13ссв34260 0.0 102394
11:00+21ссв34160 0.0 1022760
14:00+25ссв44110 0.0 10201254
17:00+25ссв4590 0.0 10191382
20:00+18ссв44160 0.0 102016
7 октября, пт
пт723:00+15св34200 0.0 102015
02:00+12всв22250 0.0 101910
05:00+10всв11350 0.0 102011
08:00+14ссв11250 0.0 102010
11:00+22ссз22130 0.0 1021822
14:00+26с34100 0.0 10191480
17:00+26ссз5590 0.0 10191448
20:00+18с33150 0.0 102011
8 октября, сб
сб823:00+15ссз22190 0.0 102111
02:00+13с22225 0.0 102111
05:00+11с11411 0.0 102111
08:00+16с11210 0.0 102211
11:00+24с23100 0.0 1023910
14:00+27с44110 0.0 10211849
17:00+27с55100 0.0 10201753
20:00+19ссв44130 0.0 102127
9 октября, вс
вс923:00+17св44110 0.0 102121
02:00+15всв44120 0.0 102120
05:00+13всв33140 0.0 102115
08:00+15всв33150 0.0 102243
11:00+23св33100 0.0 1022669
14:00+26ссв33100 0.0 10201524
17:00+26ссв44130 0.0 10191624
20:00+19ссв44240 0.0 102023
10 октября, пн
пн1023:00+17св44230 0.0 102029
02:00+15св34270 0.0 102019
05:00+13всв33310 0.0 101911
08:00+15вюв11280 0.0 102010
11:00+23юв01160 0.0 1019606
14:00+27в11110 0.0 10161270
17:00+27всв32100 0.0 10141228
20:00+20всв44160 0.0 101519